Flag for Turkey Weather past 2 weeks in Bodrum, Turkey

Now
63 °F

Sprinkles. Overcast.


Feels Like: 63 °F
Forecast: 53 / 61 °F
Wind: 2 mph from Southwest

Location: Bodrum

Current Time: Apr 2, 2015 at 1:28:16 PM

Latest Report: Apr 2, 2015 at 12:00 PM


Visibility: 6 mi

Pressure: 29.93 "Hg

Humidity: 79%

Dew point: 56 °F

Location of BodrumLocation

Historic Weather in Bodrum — Graph

°F

Bodrum temperature yesterday

Maximum temperature yesterday: 66 °F (at 5:00 PM)
Minimum temperature yesterday: 52 °F (at 6:00 AM)
Average temperature yesterday: 62 °F

Past Weeks' High & Low Weather Summary

 TemperatureHumidityPressure
High69 °F (Mar 24, 3:00 PM)96% (Mar 29, 10:00 AM)30.17 "Hg (Mar 29, 10:00 AM)
Low43 °F (Mar 21, 5:00 AM)35% (Mar 19, 4:00 PM)29.65 "Hg (Mar 28, 8:00 AM)
Average58 °F66%29.95 "Hg
* Reported Mar 18 11:00 AM — Apr 2 12:00 Noon, Bodrum, Weather by CustomWeather, © 2015

Note: Actual official high and low records may vary slightly from our data, if they occured in-between our weather recording intervals... More about our weather records

Advertising

Bodrum weather history for previous 24 hours

 ConditionsComfort  
Time TempWeatherWind HumidityBarometerVisibility
12:00 PM
Thu, Apr 2
63 °FSprinkles. Overcast.2 mph79%29.93 "Hg6 mi
11:00 AM62 °FOvercast.3 mph82%29.90 "Hg6 mi
10:00 AM63 °FOvercast.5 mph75%29.89 "Hg6 mi
9:00 AM62 °FOvercast.3 mph76%29.88 "Hg12 mi
6:00 AM56 °FPassing clouds.3 mph75%29.87 "Hg12 mi
3:00 AM59 °FPassing clouds.5 mph71%29.86 "Hg12 mi
12:00 AM61 °FPassing clouds.5 mph77%29.87 "Hg12 mi
9:00 PM
Wed, Apr 1
61 °FPassing clouds.8 mph77%29.86 "Hg12 mi
8:00 PM62 °FPassing clouds.7 mph74%29.85 "Hg12 mi
7:00 PM65 °FPassing clouds.7 mph61%29.85 "Hg12 mi
6:00 PM66 °FPassing clouds.7 mph58%29.87 "Hg12 mi
5:00 PM66 °FPassing clouds.6 mph62%29.88 "Hg12 mi
4:00 PM66 °FPassing clouds.7 mph62%29.89 "Hg12 mi
3:00 PM66 °FPassing clouds.8 mph60%29.91 "Hg12 mi
2:00 PM65 °FPassing clouds.8 mph61%29.93 "Hg12 mi
1:00 PM65 °FPassing clouds.8 mph62%29.93 "Hg12 mi
Weather by CustomWeather, © 2015

See weather overviewHow to use our weather pages